Location: ??????
(42.0089°N, 44.3281°E)
Time: 13:11:51
(UTC+00:00)

Cosmos 1626 Rocket - Pass Details

Date: 24 October 2021
Orbit: 603 x 630 km, 82.5° (Epoch: 07 December)

Event Time Altitude Azimuth Distance (km) Brightness Sun altitude
Rises 15:06:16 0° 356° (N) 2,867 7.0 -11.6°
Reaches altitude 10° 15:08:32 10° 1° (N) 1,958 6.1 -12.0°
Maximum altitude 15:12:46 54° 79° (E) 741 3.6 -12.8°
Drops below altitude 10° 15:16:59 10° 157° (SSE) 1,946 5.9 -13.5°
Sets 15:19:13 0° 162° (SSE) 2,847 6.8 -14.0°
